Location: Riedlingen
(48.1569°N, 9.4757°E)
Time: 02:46:19
(UTC+02:00)

ISS - Pass Details

Date: 20 May 2021
Orbit: 417 x 422 km, 51.6° (Epoch: 15 June)

Event Time Altitude Azimuth Distance (km) Brightness Sun altitude
Rises 01:18:39 0° 292° (WNW) 2,372 0.3 -21.9°
Reaches altitude 10° 01:20:45 10° 293° (WNW) 1,506 -0.7 -21.9°
Enters shadow 01:23:05 41° 299° (WNW) 627 -2.8 -21.9°
